| time (UTC) | temp F | wind direction | speed MPH | gust MPH | rain 1hr in | rain 24hr in | rain mn in | humidity % | barometer mb |
| 20260505014203 | 52 | 306 | 2.0 | 8.0 | 0.00 | 0.00 | 0.00 | 73 | 1013.2 |
| 20260505014004 | 52 | 303 | 2.0 | 10.0 | 0.00 | 0.00 | 0.00 | 72 | 1013.2 |
| 20260505013803 | 52 | 301 | 3.0 | 10.0 | 0.00 | 0.00 | 0.00 | 72 | 1013.2 |
| 20260505013603 | 53 | 298 | 3.0 | 10.0 | 0.00 | 0.00 | 0.00 | 72 | 1013.2 |
| 20260505013403 | 53 | 295 | 3.0 | 10.0 | 0.00 | 0.00 | 0.00 | 71 | 1013.2 |
| 20260505013204 | 53 | 293 | 4.0 | 10.0 | 0.00 | 0.00 | 0.00 | 71 | 1013.2 |
| 20260505013004 | 53 | 293 | 4.0 | 10.0 | 0.00 | 0.00 | 0.00 | 71 | 1013.2 |
| 20260505012803 | 53 | 291 | 3.0 | 10.0 | 0.00 | 0.00 | 0.00 | 70 | 1013.2 |
| 20260505012603 | 53 | 291 | 3.0 | 10.0 | 0.00 | 0.00 | 0.00 | 70 | 1013.3 |
| 20260505012403 | 54 | 292 | 3.0 | 10.0 | 0.00 | 0.00 | 0.00 | 70 | 1013.3 |
| 20260505012203 | 54 | 294 | 3.0 | 7.0 | 0.00 | 0.00 | 0.00 | 70 | 1013.3 |
| 20260505012025 | 54 | 291 | 3.0 | 10.0 | 0.00 | 0.00 | 0.00 | 69 | 1013.2 |
| 20260505011804 | 54 | 293 | 4.0 | 10.0 | 0.00 | 0.00 | 0.00 | 68 | 1013.2 |
| 20260505011604 | 54 | 292 | 4.0 | 10.0 | 0.00 | 0.00 | 0.00 | 68 | 1013.1 |
| 20260505011404 | 54 | 292 | 4.0 | 10.0 | 0.00 | 0.00 | 0.00 | 68 | 1013.1 |
| 20260505011203 | 55 | 292 | 5.0 | 11.0 | 0.00 | 0.00 | 0.00 | 68 | 1013.1 |
| 20260505011003 | 55 | 293 | 5.0 | 11.0 | 0.00 | 0.00 | 0.00 | 68 | 1013.1 |
| 20260505010803 | 55 | 293 | 5.0 | 11.0 | 0.00 | 0.00 | 0.00 | 68 | 1013.1 |
| 20260505010603 | 55 | 291 | 5.0 | 11.0 | 0.00 | 0.00 | 0.00 | 67 | 1013.2 |
| 20260505010403 | 55 | 291 | 5.0 | 11.0 | 0.00 | 0.00 | 0.00 | 67 | 1013.2 |
| 20260505010224 | 56 | 291 | 4.0 | 11.0 | 0.00 | 0.00 | 0.00 | 67 | 1013.2 |
| 20260505010024 | 55 | 291 | 4.0 | 11.0 | 0.00 | 0.00 | 0.00 | 68 | 1013.2 |
| 20260505005824 | 55 | 290 | 4.0 | 11.0 | 0.00 | 0.00 | 0.00 | 69 | 1013.2 |
| 20260505005603 | 54 | 294 | 4.0 | 9.0 | 0.00 | 0.00 | 0.00 | 70 | 1013.1 |
| 20260505005404 | 54 | 293 | 4.0 | 10.0 | 0.00 | 0.00 | 0.00 | 69 | 1013.2 |
| 20260505005203 | 54 | 291 | 3.0 | 10.0 | 0.00 | 0.00 | 0.00 | 69 | 1013.1 |
| 20260505005024 | 54 | 290 | 3.0 | 10.0 | 0.00 | 0.00 | 0.00 | 69 | 1013.1 |
| 20260505004803 | 54 | 292 | 3.0 | 10.0 | 0.00 | 0.00 | 0.00 | 69 | 1013.2 |
| 20260505004603 | 54 | 291 | 2.0 | 10.0 | 0.00 | 0.00 | 0.00 | 68 | 1013.1 |
| 20260505004403 | 54 | 292 | 2.0 | 7.0 | 0.00 | 0.00 | 0.00 | 67 | 1013.1 |
| 20260505004204 | 54 | 291 | 2.0 | 6.0 | 0.00 | 0.00 | 0.00 | 67 | 1013.1 |
| 20260505004003 | 54 | 289 | 3.0 | 8.0 | 0.00 | 0.00 | 0.00 | 67 | 1013.1 |
| 20260505003803 | 54 | 291 | 3.0 | 10.0 | 0.00 | 0.00 | 0.00 | 67 | 1013.2 |
| 20260505003604 | 54 | 292 | 3.0 | 10.0 | 0.00 | 0.00 | 0.00 | 67 | 1013.2 |
| 20260505003403 | 54 | 294 | 3.0 | 10.0 | 0.00 | 0.00 | 0.00 | 67 | 1013.2 |
| 20260505003203 | 55 | 295 | 3.0 | 10.0 | 0.00 | 0.00 | 0.00 | 66 | 1013.3 |
| 20260505003004 | 55 | 298 | 3.0 | 10.0 | 0.00 | 0.00 | 0.00 | 66 | 1013.2 |
| 20260505002824 | 55 | 299 | 2.0 | 6.0 | 0.00 | 0.00 | 0.00 | 66 | 1013.3 |
| 20260505002603 | 55 | 301 | 3.0 | 6.0 | 0.00 | 0.00 | 0.00 | 65 | 1013.2 |
| 20260505002403 | 55 | 302 | 3.0 | 7.0 | 0.00 | 0.00 | 0.00 | 64 | 1013.2 |
| 20260505002203 | 55 | 304 | 3.0 | 8.0 | 0.00 | 0.00 | 0.00 | 63 | 1013.2 |
| 20260505002004 | 55 | 307 | 3.0 | 8.0 | 0.00 | 0.00 | 0.00 | 63 | 1013.3 |
| 20260505001803 | 55 | 302 | 3.0 | 8.0 | 0.00 | 0.00 | 0.00 | 62 | 1013.3 |
| 20260505001403 | 55 | 294 | 3.0 | 8.0 | 0.00 | 0.00 | 0.00 | 62 | 1013.3 |
| 20260505001204 | 56 | 293 | 3.0 | 8.0 | 0.00 | 0.00 | 0.00 | 61 | 1013.3 |
| 20260505001003 | 56 | 291 | 3.0 | 8.0 | 0.00 | 0.00 | 0.00 | 60 | 1013.2 |
| 20260505000803 | 56 | 296 | 3.0 | 8.0 | 0.00 | 0.00 | 0.00 | 60 | 1013.2 |
| 20260505000603 | 56 | 301 | 3.0 | 7.0 | 0.00 | 0.00 | 0.00 | 60 | 1013.1 |
| 20260505000405 | 56 | 308 | 3.0 | 7.0 | 0.00 | 0.00 | 0.00 | 60 | 1013.1 |
| 20260505000204 | 56 | 310 | 3.0 | 8.0 | 0.00 | 0.00 | 0.00 | 59 | 1013.1 |
| 20260505000004 | 56 | 313 | 3.0 | 8.0 | 0.00 | 0.00 | 0.00 | 59 | 1013.2 |
| 20260504235803 | 56 | 316 | 3.0 | 8.0 | 0.00 | 0.00 | 0.00 | 59 | 1013.1 |
| 20260504235604 | 56 | 318 | 3.0 | 8.0 | 0.00 | 0.00 | 0.00 | 59 | 1013.1 |
| 20260504235424 | 56 | 318 | 3.0 | 8.0 | 0.00 | 0.00 | 0.00 | 59 | 1013.0 |
| 20260504235203 | 57 | 322 | 3.0 | 8.0 | 0.00 | 0.00 | 0.00 | 59 | 1013.0 |
| 20260504235003 | 57 | 328 | 2.0 | 8.0 | 0.00 | 0.00 | 0.00 | 59 | 1013.0 |
| 20260504234803 | 57 | 319 | 2.0 | 8.0 | 0.00 | 0.00 | 0.00 | 60 | 1013.0 |
| 20260504234603 | 56 | 309 | 3.0 | 9.0 | 0.00 | 0.00 | 0.00 | 59 | 1013.0 |
| 20260504234403 | 57 | 303 | 3.0 | 9.0 | 0.00 | 0.00 | 0.00 | 59 | 1013.0 |
| 20260504234203 | 57 | 305 | 3.0 | 9.0 | 0.00 | 0.00 | 0.00 | 59 | 1013.0 |
| 20260504234003 | 56 | 303 | 3.0 | 9.0 | 0.00 | 0.00 | 0.00 | 58 | 1013.0 |
| 20260504233824 | 57 | 307 | 3.0 | 9.0 | 0.00 | 0.00 | 0.00 | 58 | 1013.0 |
| 20260504233603 | 57 | 322 | 3.0 | 9.0 | 0.00 | 0.00 | 0.00 | 58 | 1012.9 |
| 20260504233424 | 57 | 333 | 2.0 | 8.0 | 0.00 | 0.00 | 0.00 | 58 | 1012.9 |
| 20260504233204 | 57 | 330 | 2.0 | 6.0 | 0.00 | 0.00 | 0.00 | 58 | 1012.9 |
| 20260504233003 | 57 | 333 | 2.0 | 6.0 | 0.00 | 0.00 | 0.00 | 57 | 1012.9 |
| 20260504232804 | 57 | 330 | 2.0 | 8.0 | 0.00 | 0.00 | 0.00 | 57 | 1012.9 |
| 20260504232624 | 57 | 324 | 2.0 | 8.0 | 0.00 | 0.00 | 0.00 | 56 | 1012.8 |
| 20260504232424 | 57 | 323 | 2.0 | 8.0 | 0.00 | 0.00 | 0.00 | 57 | 1012.9 |
| 20260504232203 | 57 | 325 | 2.0 | 8.0 | 0.00 | 0.00 | 0.00 | 57 | 1012.9 |
| 20260504232004 | 57 | 324 | 2.0 | 8.0 | 0.00 | 0.00 | 0.00 | 56 | 1012.9 |
| 20260504231803 | 56 | 325 | 2.0 | 6.0 | 0.00 | 0.00 | 0.00 | 57 | 1012.8 |
| 20260504231603 | 56 | 331 | 2.0 | 6.0 | 0.00 | 0.00 | 0.00 | 57 | 1012.8 |
| 20260504231403 | 56 | 319 | 2.0 | 6.0 | 0.00 | 0.00 | 0.00 | 56 | 1012.9 |
| 20260504231203 | 56 | 316 | 2.0 | 6.0 | 0.00 | 0.00 | 0.00 | 56 | 1012.9 |
| 20260504231003 | 56 | 303 | 2.0 | 6.0 | 0.00 | 0.00 | 0.00 | 57 | 1012.9 |
| 20260504230803 | 56 | 296 | 2.0 | 6.0 | 0.00 | 0.00 | 0.00 | 56 | 1012.9 |
| 20260504230624 | 56 | 293 | 2.0 | 6.0 | 0.00 | 0.00 | 0.00 | 56 | 1013.0 |
| 20260504230403 | 56 | 297 | 1.0 | 6.0 | 0.00 | 0.00 | 0.00 | 57 | 1013.0 |
| 20260504230203 | 56 | 287 | 1.0 | 5.0 | 0.00 | 0.00 | 0.00 | 56 | 1013.1 |
| 20260504230024 | 56 | 292 | 1.0 | 5.0 | 0.00 | 0.00 | 0.00 | 58 | 1013.0 |
| 20260504225804 | 55 | 293 | 1.0 | 7.0 | 0.00 | 0.00 | 0.00 | 57 | 1013.1 |
| 20260504225603 | 55 | 291 | 1.0 | 7.0 | 0.00 | 0.00 | 0.00 | 57 | 1013.2 |
| 20260504225403 | 55 | 290 | 2.0 | 7.0 | 0.00 | 0.00 | 0.00 | 57 | 1013.2 |
| 20260504225203 | 55 | 297 | 2.0 | 7.0 | 0.00 | 0.00 | 0.00 | 57 | 1013.2 |
| 20260504225004 | 55 | 298 | 2.0 | 7.0 | 0.00 | 0.00 | 0.00 | 57 | 1013.1 |
| 20260504224803 | 55 | 304 | 3.0 | 6.0 | 0.00 | 0.00 | 0.00 | 57 | 1013.1 |
| 20260504224603 | 55 | 303 | 3.0 | 8.0 | 0.00 | 0.00 | 0.00 | 57 | 1013.2 |
| 20260504224403 | 55 | 304 | 3.0 | 8.0 | 0.00 | 0.00 | 0.00 | 57 | 1013.3 |
| 20260504224203 | 56 | 300 | 3.0 | 8.0 | 0.00 | 0.00 | 0.00 | 57 | 1013.3 |
| 20260504224003 | 56 | 300 | 2.0 | 8.0 | 0.00 | 0.00 | 0.00 | 58 | 1013.3 |
| 20260504223803 | 56 | 292 | 2.0 | 8.0 | 0.00 | 0.00 | 0.00 | 57 | 1013.3 |
| 20260504223624 | 56 | 294 | 2.0 | 6.0 | 0.00 | 0.00 | 0.00 | 56 | 1013.3 |
| 20260504223403 | 56 | 302 | 1.0 | 4.0 | 0.00 | 0.00 | 0.00 | 57 | 1013.3 |
| 20260504223203 | 56 | 300 | 1.0 | 4.0 | 0.00 | 0.00 | 0.00 | 57 | 1013.4 |
| 20260504223004 | 56 | 286 | 1.0 | 4.0 | 0.00 | 0.00 | 0.00 | 57 | 1013.4 |
| 20260504222803 | 56 | 282 | 1.0 | 5.0 | 0.00 | 0.00 | 0.00 | 57 | 1013.4 |
| 20260504222603 | 56 | 265 | 1.0 | 5.0 | 0.00 | 0.00 | 0.00 | 57 | 1013.5 |
| 20260504222404 | 56 | 223 | 1.0 | 5.0 | 0.00 | 0.00 | 0.00 | 57 | 1013.4 |
| 20260504222203 | 56 | 236 | 1.0 | 5.0 | 0.00 | 0.00 | 0.00 | 57 | 1013.4 |
| 20260504222003 | 56 | 305 | 1.0 | 8.0 | 0.00 | 0.00 | 0.00 | 56 | 1013.5 |
| 20260504221803 | 56 | 309 | 2.0 | 8.0 | 0.00 | 0.00 | 0.00 | 56 | 1013.6 |
| 20260504221603 | 56 | 306 | 2.0 | 8.0 | 0.00 | 0.00 | 0.00 | 56 | 1013.6 |
| 20260504221424 | 56 | 311 | 2.0 | 8.0 | 0.00 | 0.00 | 0.00 | 57 | 1013.6 |
| 20260504221225 | 56 | 307 | 3.0 | 8.0 | 0.00 | 0.00 | 0.00 | 56 | 1013.6 |
| 20260504221003 | 56 | 302 | 2.0 | 6.0 | 0.00 | 0.00 | 0.00 | 57 | 1013.6 |
| 20260504220804 | 56 | 301 | 2.0 | 6.0 | 0.00 | 0.00 | 0.00 | 57 | 1013.6 |
| 20260504220624 | 56 | 310 | 1.0 | 5.0 | 0.00 | 0.00 | 0.00 | 59 | 1013.5 |
| 20260504220403 | 56 | 315 | 1.0 | 6.0 | 0.00 | 0.00 | 0.00 | 58 | 1013.6 |
| 20260504220204 | 56 | 321 | 2.0 | 6.0 | 0.00 | 0.00 | 0.00 | 58 | 1013.7 |
| 20260504220024 | 56 | 321 | 2.0 | 6.0 | 0.00 | 0.00 | 0.00 | 59 | 1013.7 |
| 20260504215803 | 56 | 312 | 3.0 | 7.0 | 0.00 | 0.00 | 0.00 | 59 | 1013.7 |
| 20260504215603 | 56 | 307 | 3.0 | 7.0 | 0.00 | 0.00 | 0.00 | 59 | 1013.9 |
| 20260504215424 | 56 | 305 | 3.0 | 7.0 | 0.00 | 0.00 | 0.00 | 59 | 1013.9 |
| 20260504215204 | 56 | 301 | 3.0 | 7.0 | 0.00 | 0.00 | 0.00 | 59 | 1013.8 |
| 20260504215024 | 56 | 301 | 3.0 | 7.0 | 0.00 | 0.00 | 0.00 | 59 | 1013.8 |
| 20260504214803 | 56 | 306 | 2.0 | 6.0 | 0.00 | 0.00 | 0.00 | 60 | 1013.9 |
| 20260504214604 | 56 | 306 | 3.0 | 7.0 | 0.00 | 0.00 | 0.00 | 59 | 1013.9 |
| 20260504214424 | 56 | 304 | 3.0 | 7.0 | 0.00 | 0.00 | 0.00 | 59 | 1013.9 |
| 20260504214204 | 56 | 301 | 3.0 | 8.0 | 0.00 | 0.00 | 0.00 | 60 | 1014.0 |
| 20260504214003 | 56 | 300 | 3.0 | 8.0 | 0.00 | 0.00 | 0.00 | 60 | 1014.0 |
| 20260504213824 | 56 | 298 | 3.0 | 8.0 | 0.00 | 0.00 | 0.00 | 59 | 1014.1 |
| 20260504213604 | 56 | 294 | 3.0 | 8.0 | 0.00 | 0.00 | 0.00 | 59 | 1014.1 |
| 20260504213404 | 56 | 292 | 2.0 | 8.0 | 0.00 | 0.00 | 0.00 | 58 | 1014.1 |
| 20260504213203 | 56 | 292 | 2.0 | 7.0 | 0.00 | 0.00 | 0.00 | 59 | 1014.2 |
| 20260504213004 | 56 | 293 | 2.0 | 7.0 | 0.00 | 0.00 | 0.00 | 59 | 1014.2 |
| 20260504212803 | 56 | 296 | 3.0 | 8.0 | 0.00 | 0.00 | 0.00 | 59 | 1014.2 |
| 20260504212604 | 55 | 297 | 2.0 | 8.0 | 0.00 | 0.00 | 0.00 | 58 | 1014.3 |
| 20260504212424 | 55 | 297 | 3.0 | 8.0 | 0.00 | 0.00 | 0.00 | 58 | 1014.4 |
| 20260504212203 | 56 | 296 | 3.0 | 8.0 | 0.00 | 0.00 | 0.00 | 57 | 1014.2 |
| 20260504212003 | 56 | 297 | 2.0 | 8.0 | 0.00 | 0.00 | 0.00 | 57 | 1014.2 |
| 20260504211803 | 56 | 299 | 2.0 | 7.0 | 0.00 | 0.00 | 0.00 | 56 | 1014.3 |
| 20260504211603 | 56 | 298 | 2.0 | 7.0 | 0.00 | 0.00 | 0.00 | 57 | 1014.3 |
| 20260504211403 | 56 | 298 | 2.0 | 7.0 | 0.00 | 0.00 | 0.00 | 58 | 1014.2 |
| 20260504211204 | 56 | 298 | 2.0 | 7.0 | 0.00 | 0.00 | 0.00 | 56 | 1014.2 |
| 20260504211004 | 56 | 302 | 3.0 | 7.0 | 0.00 | 0.00 | 0.00 | 56 | 1014.3 |
| 20260504210804 | 56 | 300 | 3.0 | 7.0 | 0.00 | 0.00 | 0.00 | 56 | 1014.3 |
| 20260504210624 | 56 | 302 | 2.0 | 7.0 | 0.00 | 0.00 | 0.00 | 57 | 1014.3 |
| 20260504210424 | 56 | 301 | 3.0 | 9.0 | 0.00 | 0.00 | 0.00 | 57 | 1014.2 |
| 20260504210203 | 56 | 299 | 3.0 | 9.0 | 0.00 | 0.00 | 0.00 | 56 | 1014.3 |
| 20260504210004 | 56 | 302 | 3.0 | 9.0 | 0.00 | 0.00 | 0.00 | 58 | 1014.3 |
| 20260504205824 | 56 | 307 | 3.0 | 9.0 | 0.00 | 0.00 | 0.00 | 60 | 1014.3 |
| 20260504205603 | 55 | 308 | 3.0 | 9.0 | 0.00 | 0.00 | 0.00 | 58 | 1014.3 |
| 20260504205404 | 55 | 308 | 2.0 | 7.0 | 0.00 | 0.00 | 0.00 | 59 | 1014.4 |
| 20260504205224 | 55 | 305 | 2.0 | 7.0 | 0.00 | 0.00 | 0.00 | 58 | 1014.3 |
| 20260504205003 | 55 | 289 | 2.0 | 7.0 | 0.00 | 0.00 | 0.00 | 58 | 1014.3 |
| 20260504204804 | 55 | 283 | 2.0 | 7.0 | 0.00 | 0.00 | 0.00 | 58 | 1014.3 |
| 20260504204604 | 55 | 285 | 2.0 | 7.0 | 0.00 | 0.00 | 0.00 | 58 | 1014.3 |
| 20260504204403 | 55 | 287 | 3.0 | 7.0 | 0.00 | 0.00 | 0.00 | 58 | 1014.4 |
| 20260504204224 | 55 | 288 | 2.0 | 7.0 | 0.00 | 0.00 | 0.00 | 58 | 1014.4 |
| 20260504204025 | 55 | 291 | 2.0 | 7.0 | 0.00 | 0.00 | 0.00 | 60 | 1014.4 |
| 20260504203803 | 55 | 287 | 3.0 | 7.0 | 0.00 | 0.00 | 0.00 | 58 | 1014.4 |
| 20260504203603 | 55 | 286 | 3.0 | 7.0 | 0.00 | 0.00 | 0.00 | 58 | 1014.4 |
| 20260504203403 | 55 | 284 | 3.0 | 7.0 | 0.00 | 0.00 | 0.00 | 59 | 1014.4 |
| 20260504203203 | 54 | 286 | 3.0 | 7.0 | 0.00 | 0.00 | 0.00 | 59 | 1014.4 |
| 20260504203004 | 54 | 284 | 3.0 | 7.0 | 0.00 | 0.00 | 0.00 | 59 | 1014.4 |
| 20260504202803 | 54 | 285 | 3.0 | 6.0 | 0.00 | 0.00 | 0.00 | 59 | 1014.4 |
| 20260504202625 | 54 | 285 | 3.0 | 6.0 | 0.00 | 0.00 | 0.00 | 59 | 1014.4 |
| 20260504202403 | 54 | 286 | 3.0 | 6.0 | 0.00 | 0.00 | 0.00 | 58 | 1014.4 |
| 20260504202204 | 55 | 283 | 2.0 | 6.0 | 0.00 | 0.00 | 0.00 | 57 | 1014.4 |
| 20260504202003 | 55 | 290 | 2.0 | 6.0 | 0.00 | 0.00 | 0.00 | 58 | 1014.4 |
| 20260504201804 | 55 | 291 | 3.0 | 8.0 | 0.00 | 0.00 | 0.00 | 57 | 1014.3 |
| 20260504201604 | 55 | 290 | 2.0 | 8.0 | 0.00 | 0.00 | 0.00 | 57 | 1014.3 |
| 20260504201404 | 55 | 285 | 2.0 | 8.0 | 0.00 | 0.00 | 0.00 | 58 | 1014.3 |
| 20260504201203 | 55 | 288 | 2.0 | 8.0 | 0.00 | 0.00 | 0.00 | 57 | 1014.4 |
| 20260504201003 | 55 | 287 | 2.0 | 8.0 | 0.00 | 0.00 | 0.00 | 57 | 1014.5 |
| 20260504200804 | 55 | 282 | 2.0 | 6.0 | 0.00 | 0.00 | 0.00 | 56 | 1014.4 |
| 20260504200625 | 55 | 282 | 1.0 | 5.0 | 0.00 | 0.00 | 0.00 | 56 | 1014.4 |
| 20260504200424 | 55 | 287 | 1.0 | 5.0 | 0.00 | 0.00 | 0.00 | 56 | 1014.5 |
| 20260504200203 | 55 | 286 | 1.0 | 7.0 | 0.00 | 0.00 | 0.00 | 55 | 1014.5 |
| 20260504200004 | 55 | 284 | 1.0 | 8.0 | 0.00 | 0.00 | 0.00 | 55 | 1014.5 |
| 20260504195803 | 55 | 287 | 1.0 | 8.0 | 0.00 | 0.00 | 0.00 | 57 | 1014.4 |
| 20260504195624 | 55 | 287 | 1.0 | 8.0 | 0.00 | 0.00 | 0.00 | 55 | 1014.5 |
| 20260504195404 | 55 | 285 | 1.0 | 8.0 | 0.00 | 0.00 | 0.00 | 54 | 1014.5 |
| 20260504195203 | 56 | 294 | 2.0 | 8.0 | 0.00 | 0.00 | 0.00 | 56 | 1014.4 |
| 20260504195024 | 56 | 303 | 1.0 | 5.0 | 0.00 | 0.00 | 0.00 | 57 | 1014.4 |
| 20260504194804 | 56 | 313 | 1.0 | 5.0 | 0.00 | 0.00 | 0.00 | 59 | 1014.4 |
| 20260504194604 | 55 | 325 | 1.0 | 5.0 | 0.00 | 0.00 | 0.00 | 57 | 1014.4 |
| 20260504194403 | 55 | 327 | 1.0 | 5.0 | 0.00 | 0.00 | 0.00 | 59 | 1014.4 |
| 20260504194203 | 55 | 313 | 1.0 | 5.0 | 0.00 | 0.00 | 0.00 | 59 | 1014.4 |
| 20260504194024 | 54 | 297 | 1.0 | 6.0 | 0.00 | 0.00 | 0.00 | 59 | 1014.5 |
| 20260504193803 | 54 | 296 | 2.0 | 6.0 | 0.00 | 0.00 | 0.00 | 60 | 1014.6 |
| 20260504193603 | 54 | 290 | 2.0 | 6.0 | 0.00 | 0.00 | 0.00 | 61 | 1014.6 |
| 20260504193404 | 54 | 291 | 2.0 | 6.0 | 0.00 | 0.00 | 0.00 | 60 | 1014.6 |
| 20260504193203 | 54 | 292 | 2.0 | 6.0 | 0.00 | 0.00 | 0.00 | 60 | 1014.5 |
| 20260504193003 | 54 | 293 | 2.0 | 6.0 | 0.00 | 0.00 | 0.00 | 60 | 1014.5 |
| 20260504192803 | 54 | 286 | 2.0 | 7.0 | 0.00 | 0.00 | 0.00 | 60 | 1014.5 |
| 20260504192604 | 54 | 286 | 2.0 | 7.0 | 0.00 | 0.00 | 0.00 | 61 | 1014.5 |
| 20260504192424 | 54 | 280 | 2.0 | 7.0 | 0.00 | 0.00 | 0.00 | 59 | 1014.5 |
| 20260504192204 | 54 | 275 | 2.0 | 7.0 | 0.00 | 0.00 | 0.00 | 60 | 1014.6 |
| 20260504192003 | 54 | 271 | 2.0 | 10.0 | 0.00 | 0.00 | 0.00 | 62 | 1014.7 |
| 20260504191803 | 54 | 276 | 2.0 | 10.0 | 0.00 | 0.00 | 0.00 | 62 | 1014.8 |
| 20260504191604 | 53 | 264 | 2.0 | 10.0 | 0.00 | 0.00 | 0.00 | 62 | 1014.8 |
| 20260504191403 | 53 | 264 | 2.0 | 10.0 | 0.00 | 0.00 | 0.00 | 60 | 1014.7 |
| 20260504191204 | 54 | 269 | 2.0 | 10.0 | 0.00 | 0.00 | 0.00 | 61 | 1014.7 |
| 20260504191003 | 54 | 272 | 2.0 | 9.0 | 0.00 | 0.00 | 0.00 | 61 | 1014.6 |
| 20260504190825 | 54 | 272 | 2.0 | 6.0 | 0.00 | 0.00 | 0.00 | 61 | 1014.6 |
| 20260504190603 | 53 | 287 | 1.0 | 6.0 | 0.00 | 0.00 | 0.00 | 62 | 1014.6 |
| 20260504190404 | 53 | 287 | 1.0 | 6.0 | 0.00 | 0.00 | 0.00 | 61 | 1014.5 |
| 20260504190204 | 53 | 296 | 1.0 | 6.0 | 0.00 | 0.00 | 0.00 | 63 | 1014.5 |
| 20260504190003 | 53 | 310 | 1.0 | 6.0 | 0.00 | 0.00 | 0.00 | 62 | 1014.5 |
| 20260504185803 | 53 | 303 | 2.0 | 10.0 | 0.00 | 0.00 | 0.00 | 63 | 1014.5 |
| 20260504185625 | 53 | 302 | 2.0 | 10.0 | 0.00 | 0.00 | 0.00 | 63 | 1014.5 |
| 20260504185424 | 53 | 299 | 3.0 | 10.0 | 0.00 | 0.00 | 0.00 | 62 | 1014.4 |
| 20260504185225 | 53 | 298 | 4.0 | 10.0 | 0.00 | 0.00 | 0.00 | 62 | 1014.4 |
| 20260504185003 | 53 | 298 | 4.0 | 10.0 | 0.00 | 0.00 | 0.00 | 61 | 1014.5 |
| 20260504184804 | 54 | 295 | 3.0 | 9.0 | 0.00 | 0.00 | 0.00 | 62 | 1014.4 |
| 20260504184603 | 54 | 293 | 2.0 | 9.0 | 0.00 | 0.00 | 0.00 | 62 | 1014.4 |
| 20260504184403 | 54 | 290 | 1.0 | 6.0 | 0.00 | 0.00 | 0.00 | 62 | 1014.4 |
| 20260504184203 | 54 | 284 | 1.0 | 6.0 | 0.00 | 0.00 | 0.00 | 62 | 1014.4 |
| 20260504184003 | 54 | 267 | 1.0 | 6.0 | 0.00 | 0.00 | 0.00 | 60 | 1014.4 |
| 20260504183803 | 54 | 289 | 1.0 | 5.0 | 0.00 | 0.00 | 0.00 | 60 | 1014.4 |
| 20260504183604 | 54 | 290 | 1.0 | 4.0 | 0.00 | 0.00 | 0.00 | 60 | 1014.6 |
| 20260504183403 | 54 | 307 | 2.0 | 6.0 | 0.00 | 0.00 | 0.00 | 60 | 1014.6 |
| 20260504183204 | 54 | 315 | 2.0 | 6.0 | 0.00 | 0.00 | 0.00 | 60 | 1014.6 |
| 20260504183003 | 54 | 311 | 2.0 | 6.0 | 0.00 | 0.00 | 0.00 | 60 | 1014.6 |
| 20260504182803 | 55 | 308 | 2.0 | 6.0 | 0.00 | 0.00 | 0.00 | 61 | 1014.6 |
| 20260504182604 | 55 | 309 | 1.0 | 6.0 | 0.00 | 0.00 | 0.00 | 60 | 1014.6 |
| 20260504182424 | 55 | 301 | 2.0 | 7.0 | 0.00 | 0.00 | 0.00 | 62 | 1014.5 |
| 20260504182204 | 54 | 290 | 2.0 | 7.0 | 0.00 | 0.00 | 0.00 | 61 | 1014.5 |
| 20260504182004 | 54 | 294 | 2.0 | 7.0 | 0.00 | 0.00 | 0.00 | 61 | 1014.6 |
| 20260504181804 | 54 | 295 | 2.0 | 7.0 | 0.00 | 0.00 | 0.00 | 62 | 1014.6 |
| 20260504181624 | 54 | 296 | 2.0 | 7.0 | 0.00 | 0.00 | 0.00 | 62 | 1014.5 |
| 20260504181404 | 54 | 299 | 1.0 | 6.0 | 0.00 | 0.00 | 0.00 | 63 | 1014.5 |
| 20260504181203 | 54 | 293 | 1.0 | 6.0 | 0.00 | 0.00 | 0.00 | 65 | 1014.5 |
| 20260504181003 | 53 | 298 | 1.0 | 4.0 | 0.00 | 0.00 | 0.00 | 63 | 1014.5 |
| 20260504180803 | 53 | 297 | 1.0 | 4.0 | 0.00 | 0.00 | 0.00 | 63 | 1014.5 |
| 20260504180624 | 53 | 297 | 1.0 | 4.0 | 0.00 | 0.00 | 0.00 | 63 | 1014.4 |
| 20260504180403 | 53 | 293 | 1.0 | 4.0 | 0.00 | 0.00 | 0.00 | 63 | 1014.5 |
| 20260504180204 | 53 | 282 | 0.0 | 2.0 | 0.00 | 0.00 | 0.00 | 64 | 1014.5 |
| 20260504180003 | 53 | 296 | 0.0 | 2.0 | 0.00 | 0.00 | 0.00 | 65 | 1014.5 |
| 20260504175803 | 53 | 0 | 0.0 | 0.0 | 0.00 | 0.00 | 0.00 | 66 | 1014.5 |
| 20260504175604 | 53 | 335 | 0.0 | 1.0 | 0.00 | 0.00 | 0.00 | 65 | 1014.5 |
| 20260504175403 | 53 | 219 | 0.0 | 4.0 | 0.00 | 0.00 | 0.00 | 66 | 1014.4 |
| 20260504175224 | 53 | 236 | 0.0 | 5.0 | 0.00 | 0.00 | 0.00 | 66 | 1014.4 |
| 20260504175003 | 53 | 236 | 0.0 | 5.0 | 0.00 | 0.00 | 0.00 | 68 | 1014.5 |
| 20260504174825 | 52 | 237 | 1.0 | 5.0 | 0.00 | 0.00 | 0.00 | 69 | 1014.4 |
| 20260504174603 | 52 | 253 | 1.0 | 7.0 | 0.00 | 0.00 | 0.00 | 69 | 1014.3 |
| 20260504174403 | 52 | 270 | 2.0 | 7.0 | 0.00 | 0.00 | 0.00 | 70 | 1014.3 |
| 20260504174203 | 51 | 281 | 2.0 | 7.0 | 0.00 | 0.00 | 0.00 | 72 | 1014.3 |
| 20260504174004 | 51 | 287 | 2.0 | 7.0 | 0.00 | 0.00 | 0.00 | 71 | 1014.2 |
| 20260504173803 | 51 | 290 | 2.0 | 7.0 | 0.00 | 0.00 | 0.00 | 71 | 1014.2 |
| 20260504173603 | 51 | 297 | 2.0 | 7.0 | 0.00 | 0.00 | 0.00 | 71 | 1014.2 |
| 20260504173404 | 51 | 296 | 1.0 | 7.0 | 0.00 | 0.00 | 0.00 | 71 | 1014.2 |
| 20260504173205 | 51 | 303 | 1.0 | 7.0 | 0.00 | 0.00 | 0.00 | 70 | 1014.2 |
| 20260504173003 | 51 | 287 | 0.0 | 3.0 | 0.00 | 0.00 | 0.00 | 70 | 1014.1 |
| 20260504172803 | 51 | 292 | 0.0 | 4.0 | 0.00 | 0.00 | 0.00 | 70 | 1014.1 |
| 20260504172603 | 51 | 295 | 1.0 | 5.0 | 0.00 | 0.00 | 0.00 | 71 | 1014.2 |
| 20260504172403 | 51 | 294 | 1.0 | 5.0 | 0.00 | 0.00 | 0.00 | 70 | 1014.2 |
| 20260504172226 | 51 | 292 | 1.0 | 5.0 | 0.00 | 0.00 | 0.00 | 70 | 1014.2 |
| 20260504172003 | 51 | 292 | 1.0 | 5.0 | 0.00 | 0.00 | 0.00 | 70 | 1014.2 |
| 20260504171804 | 51 | 292 | 1.0 | 5.0 | 0.00 | 0.00 | 0.00 | 70 | 1014.2 |
| 20260504171603 | 51 | 254 | 1.0 | 5.0 | 0.00 | 0.00 | 0.00 | 70 | 1014.2 |
| 20260504171405 | 52 | 222 | 1.0 | 5.0 | 0.00 | 0.00 | 0.00 | 69 | 1014.0 |
| 20260504171203 | 52 | 124 | 0.0 | 4.0 | 0.00 | 0.00 | 0.00 | 69 | 1013.9 |
| 20260504171004 | 51 | 124 | 0.0 | 4.0 | 0.00 | 0.00 | 0.00 | 68 | 1013.9 |
| 20260504170804 | 51 | 131 | 0.0 | 4.0 | 0.00 | 0.00 | 0.00 | 69 | 1014.0 |
| 20260504170624 | 51 | 124 | 0.0 | 4.0 | 0.00 | 0.00 | 0.00 | 69 | 1014.0 |
| 20260504170424 | 51 | 109 | 0.0 | 3.0 | 0.00 | 0.00 | 0.00 | 70 | 1014.0 |
| 20260504170203 | 51 | 114 | 0.0 | 3.0 | 0.00 | 0.00 | 0.00 | 71 | 1013.9 |
| 20260504160403 | 49 | 273 | 1.0 | 3.0 | 0.00 | 0.00 | 0.00 | 78 | 1013.6 |
| 20260504160203 | 48 | 270 | 1.0 | 3.0 | 0.00 | 0.00 | 0.00 | 78 | 1013.6 |
| 20260504151024 | 48 | 0 | 0.0 | 0.0 | 0.00 | 0.00 | 0.00 | 82 | 1013.5 |
| 20260504150803 | 48 | 0 | 0.0 | 0.0 | 0.00 | 0.00 | 0.00 | 82 | 1013.5 |
| 20260504150603 | 48 | 0 | 0.0 | 0.0 | 0.00 | 0.00 | 0.00 | 83 | 1013.5 |
| 20260504150424 | 48 | 0 | 0.0 | 0.0 | 0.00 | 0.00 | 0.00 | 83 | 1013.4 |
| 20260504150203 | 48 | 0 | 0.0 | 0.0 | 0.00 | 0.00 | 0.00 | 85 | 1013.4 |
| 20260504141203 | 47 | 0 | 0.0 | 0.0 | 0.00 | 0.00 | 0.00 | 89 | 1013.2 |
| 20260504141024 | 47 | 0 | 0.0 | 0.0 | 0.00 | 0.00 | 0.00 | 89 | 1013.2 |
| 20260504140803 | 47 | 0 | 0.0 | 0.0 | 0.00 | 0.00 | 0.00 | 90 | 1013.3 |
| 20260504140603 | 47 | 0 | 0.0 | 0.0 | 0.00 | 0.00 | 0.00 | 90 | 1013.3 |
| 20260504140403 | 47 | 0 | 0.0 | 0.0 | 0.00 | 0.00 | 0.00 | 90 | 1013.2 |
| 20260504140203 | 47 | 0 | 0.0 | 0.0 | 0.00 | 0.00 | 0.00 | 90 | 1013.2 |
| 20260504130803 | 46 | 296 | 1.0 | 4.0 | 0.00 | 0.00 | 0.00 | 87 | 1013.1 |
| 20260504130603 | 46 | 290 | 1.0 | 5.0 | 0.00 | 0.00 | 0.00 | 87 | 1013.0 |
| 20260504130403 | 46 | 287 | 1.0 | 5.0 | 0.00 | 0.00 | 0.00 | 87 | 1012.9 |
| 20260504130204 | 46 | 291 | 1.0 | 5.0 | 0.00 | 0.00 | 0.00 | 87 | 1013.0 |
| 20260504120203 | 46 | 294 | 1.0 | 4.0 | 0.00 | 0.00 | 0.00 | 90 | 1012.7 |
| 20260504110603 | 47 | 285 | 2.0 | 6.0 | 0.00 | 0.00 | 0.00 | 91 | 1012.2 |
| 20260504110403 | 47 | 286 | 1.0 | 6.0 | 0.00 | 0.00 | 0.00 | 91 | 1012.1 |
| 20260504110203 | 47 | 288 | 1.0 | 5.0 | 0.00 | 0.00 | 0.00 | 92 | 1012.1 |
| 20260504100403 | 47 | 314 | 0.0 | 3.0 | 0.00 | 0.00 | 0.00 | 91 | 1012.1 |
| 20260504100204 | 47 | 313 | 0.0 | 3.0 | 0.00 | 0.00 | 0.00 | 91 | 1012.0 |
| 20260504082003 | 48 | 0 | 0.0 | 0.0 | 0.00 | 0.00 | 0.00 | 88 | 1013.4 |
| 20260504081804 | 48 | 0 | 0.0 | 0.0 | 0.00 | 0.00 | 0.00 | 88 | 1013.6 |
| 20260504081603 | 48 | 0 | 0.0 | 0.0 | 0.00 | 0.00 | 0.00 | 88 | 1013.4 |
| 20260504081403 | 48 | 0 | 0.0 | 0.0 | 0.00 | 0.00 | 0.00 | 88 | 1013.3 |
| 20260504081203 | 48 | 0 | 0.0 | 0.0 | 0.00 | 0.00 | 0.00 | 88 | 1013.3 |
| 20260504081003 | 48 | 0 | 0.0 | 0.0 | 0.00 | 0.00 | 0.00 | 88 | 1013.3 |
| 20260504080803 | 48 | 283 | 0.0 | 4.0 | 0.00 | 0.00 | 0.00 | 88 | 1013.3 |
| 20260504080603 | 48 | 286 | 0.0 | 4.0 | 0.00 | 0.00 | 0.00 | 88 | 1013.2 |
| 20260504080424 | 48 | 287 | 1.0 | 4.0 | 0.00 | 0.00 | 0.00 | 88 | 1013.4 |
| 20260504080224 | 48 | 284 | 1.0 | 5.0 | 0.00 | 0.00 | 0.00 | 88 | 1013.8 |
| 20260504070403 | 49 | 335 | 0.0 | 2.0 | 0.00 | 0.00 | 0.00 | 84 | 1012.7 |
| 20260504070203 | 49 | 324 | 0.0 | 2.0 | 0.00 | 0.00 | 0.00 | 84 | 1012.8 |
| 20260504060203 | 50 | 0 | 0.0 | 0.0 | 0.00 | 0.00 | 0.00 | 80 | 1011.9 |
| 20260504050603 | 51 | 223 | 0.0 | 2.0 | 0.00 | 0.00 | 0.00 | 82 | 1012.3 |
| 20260504050424 | 51 | 223 | 0.0 | 2.0 | 0.00 | 0.00 | 0.00 | 82 | 1012.3 |
| 20260504050203 | 51 | 0 | 0.0 | 0.0 | 0.00 | 0.00 | 0.00 | 82 | 1012.4 |
| 20260504050003 | 51 | 305 | 0.0 | 4.0 | 0.00 | 0.00 | 0.00 | 82 | 1012.5 |
| 20260504045803 | 51 | 303 | 0.0 | 4.0 | 0.00 | 0.00 | 0.00 | 82 | 1012.6 |
| 20260504045603 | 51 | 303 | 0.0 | 4.0 | 0.00 | 0.00 | 0.00 | 82 | 1012.5 |
| 20260504045403 | 51 | 303 | 0.0 | 4.0 | 0.00 | 0.00 | 0.00 | 81 | 1012.4 |
| 20260504045224 | 51 | 303 | 0.0 | 4.0 | 0.00 | 0.00 | 0.00 | 81 | 1012.5 |
| 20260504045003 | 51 | 296 | 0.0 | 2.0 | 0.00 | 0.00 | 0.00 | 81 | 1012.4 |
| 20260504044803 | 51 | 277 | 0.0 | 1.0 | 0.00 | 0.00 | 0.00 | 81 | 1012.4 |
| 20260504044624 | 51 | 0 | 0.0 | 0.0 | 0.00 | 0.00 | 0.00 | 81 | 1012.5 |
| 20260504044403 | 51 | 0 | 0.0 | 0.0 | 0.00 | 0.00 | 0.00 | 81 | 1012.5 |
| 20260504044203 | 51 | 0 | 0.0 | 0.0 | 0.00 | 0.00 | 0.00 | 81 | 1012.4 |
| 20260504044003 | 51 | 0 | 0.0 | 0.0 | 0.00 | 0.00 | 0.00 | 81 | 1012.4 |
| 20260504043804 | 51 | 0 | 0.0 | 0.0 | 0.00 | 0.00 | 0.00 | 80 | 1012.4 |
| 20260504043603 | 51 | 0 | 0.0 | 0.0 | 0.00 | 0.00 | 0.00 | 80 | 1012.3 |
| 20260504043404 | 51 | 0 | 0.0 | 0.0 | 0.00 | 0.00 | 0.00 | 80 | 1012.3 |
| 20260504043204 | 51 | 0 | 0.0 | 0.0 | 0.00 | 0.00 | 0.00 | 80 | 1012.3 |
| 20260504043024 | 51 | 0 | 0.0 | 0.0 | 0.00 | 0.00 | 0.00 | 81 | 1012.3 |
| 20260504042825 | 51 | 0 | 0.0 | 0.0 | 0.00 | 0.00 | 0.00 | 80 | 1012.2 |
| 20260504042603 | 51 | 0 | 0.0 | 0.0 | 0.00 | 0.00 | 0.00 | 80 | 1012.2 |
| 20260504042404 | 51 | 0 | 0.0 | 0.0 | 0.00 | 0.00 | 0.00 | 80 | 1012.2 |
| 20260504042203 | 51 | 315 | 0.0 | 2.0 | 0.00 | 0.00 | 0.00 | 80 | 1012.2 |
| 20260504042003 | 52 | 297 | 0.0 | 2.0 | 0.00 | 0.00 | 0.00 | 80 | 1012.2 |
| 20260504041803 | 52 | 297 | 0.0 | 2.0 | 0.00 | 0.00 | 0.00 | 80 | 1012.2 |
| 20260504041603 | 52 | 286 | 0.0 | 3.0 | 0.00 | 0.00 | 0.00 | 80 | 1012.1 |
| 20260504041404 | 52 | 284 | 1.0 | 3.0 | 0.00 | 0.00 | 0.00 | 80 | 1012.1 |
| 20260504041203 | 52 | 278 | 0.0 | 3.0 | 0.00 | 0.00 | 0.00 | 80 | 1012.1 |
| 20260504041024 | 52 | 278 | 0.0 | 3.0 | 0.00 | 0.00 | 0.00 | 80 | 1012.1 |
| 20260504040803 | 52 | 278 | 0.0 | 3.0 | 0.00 | 0.00 | 0.00 | 79 | 1012.2 |
| 20260504040603 | 52 | 278 | 0.0 | 3.0 | 0.00 | 0.00 | 0.00 | 79 | 1012.2 |
| 20260504040404 | 52 | 0 | 0.0 | 0.0 | 0.00 | 0.00 | 0.00 | 80 | 1012.1 |
| 20260504040204 | 52 | 320 | 0.0 | 3.0 | 0.00 | 0.00 | 0.00 | 80 | 1012.1 |
| 20260504040003 | 52 | 306 | 0.0 | 3.0 | 0.00 | 0.00 | 0.00 | 80 | 1011.9 |
| 20260504035803 | 52 | 305 | 0.0 | 3.0 | 0.00 | 0.00 | 0.00 | 79 | 1011.9 |
| 20260504035603 | 52 | 304 | 0.0 | 3.0 | 0.00 | 0.00 | 0.00 | 79 | 1011.9 |
| 20260504035424 | 52 | 300 | 1.0 | 3.0 | 0.00 | 0.00 | 0.00 | 79 | 1012.0 |
| 20260504035203 | 52 | 291 | 1.0 | 4.0 | 0.00 | 0.00 | 0.00 | 79 | 1012.0 |
| 20260504035003 | 52 | 293 | 1.0 | 4.0 | 0.00 | 0.00 | 0.00 | 79 | 1012.0 |
| 20260504034824 | 52 | 296 | 1.0 | 4.0 | 0.00 | 0.00 | 0.00 | 79 | 1011.9 |
| 20260504034603 | 52 | 296 | 1.0 | 4.0 | 0.00 | 0.00 | 0.00 | 79 | 1011.9 |
| 20260504034403 | 52 | 298 | 1.0 | 4.0 | 0.00 | 0.00 | 0.00 | 79 | 1011.8 |
| 20260504034225 | 52 | 302 | 1.0 | 4.0 | 0.00 | 0.00 | 0.00 | 78 | 1011.9 |
| 20260504034003 | 52 | 312 | 0.0 | 4.0 | 0.00 | 0.00 | 0.00 | 78 | 1011.9 |
| 20260504033803 | 52 | 293 | 0.0 | 3.0 | 0.00 | 0.00 | 0.00 | 79 | 1011.9 |
| 20260504033624 | 52 | 294 | 0.0 | 3.0 | 0.00 | 0.00 | 0.00 | 79 | 1011.8 |
| 20260504033424 | 52 | 296 | 0.0 | 3.0 | 0.00 | 0.00 | 0.00 | 78 | 1011.8 |
| 20260504033203 | 52 | 296 | 0.0 | 3.0 | 0.00 | 0.00 | 0.00 | 78 | 1011.8 |
| 20260504033003 | 52 | 304 | 1.0 | 3.0 | 0.00 | 0.00 | 0.00 | 78 | 1011.8 |
| 20260504032804 | 52 | 295 | 1.0 | 5.0 | 0.00 | 0.00 | 0.00 | 78 | 1011.8 |
| 20260504032625 | 52 | 302 | 1.0 | 5.0 | 0.00 | 0.00 | 0.00 | 78 | 1011.8 |
| 20260504032403 | 52 | 301 | 2.0 | 6.0 | 0.00 | 0.00 | 0.00 | 78 | 1011.7 |
| 20260504032204 | 52 | 295 | 2.0 | 6.0 | 0.00 | 0.00 | 0.00 | 78 | 1011.5 |
| 20260504032003 | 53 | 292 | 3.0 | 6.0 | 0.00 | 0.00 | 0.00 | 78 | 1011.6 |
| 20260504031803 | 53 | 293 | 3.0 | 6.0 | 0.00 | 0.00 | 0.00 | 78 | 1011.7 |
| 20260504031603 | 53 | 292 | 3.0 | 6.0 | 0.00 | 0.00 | 0.00 | 78 | 1011.7 |
| 20260504031425 | 53 | 292 | 2.0 | 6.0 | 0.00 | 0.00 | 0.00 | 77 | 1011.5 |
| 20260504031203 | 53 | 294 | 2.0 | 5.0 | 0.00 | 0.00 | 0.00 | 77 | 1011.5 |
| 20260504031003 | 53 | 295 | 2.0 | 5.0 | 0.00 | 0.00 | 0.00 | 77 | 1011.4 |
| 20260504030803 | 53 | 296 | 2.0 | 5.0 | 0.00 | 0.00 | 0.00 | 77 | 1011.4 |
| 20260504030603 | 53 | 293 | 2.0 | 5.0 | 0.00 | 0.00 | 0.00 | 77 | 1011.5 |
| 20260504030403 | 53 | 291 | 2.0 | 5.0 | 0.00 | 0.00 | 0.00 | 77 | 1011.5 |
| 20260504030224 | 53 | 292 | 2.0 | 5.0 | 0.00 | 0.00 | 0.00 | 77 | 1011.5 |
| 20260504030024 | 53 | 292 | 2.0 | 5.0 | 0.00 | 0.00 | 0.00 | 77 | 1011.4 |
| 20260504025803 | 53 | 291 | 2.0 | 5.0 | 0.00 | 0.00 | 0.00 | 77 | 1011.4 |
| 20260504025604 | 53 | 291 | 2.0 | 5.0 | 0.00 | 0.00 | 0.00 | 77 | 1011.4 |
| 20260504025403 | 53 | 292 | 2.0 | 5.0 | 0.00 | 0.00 | 0.00 | 77 | 1011.4 |
| 20260504025203 | 53 | 288 | 2.0 | 6.0 | 0.00 | 0.00 | 0.00 | 76 | 1011.3 |
| 20260504025003 | 53 | 289 | 1.0 | 6.0 | 0.00 | 0.00 | 0.00 | 76 | 1011.2 |
| 20260504024803 | 54 | 295 | 2.0 | 6.0 | 0.00 | 0.00 | 0.00 | 77 | 1011.1 |
| 20260504024603 | 54 | 294 | 2.0 | 6.0 | 0.00 | 0.00 | 0.00 | 76 | 1011.1 |
| 20260504024403 | 54 | 290 | 2.0 | 6.0 | 0.00 | 0.00 | 0.00 | 76 | 1011.1 |
| 20260504024224 | 54 | 291 | 2.0 | 6.0 | 0.00 | 0.00 | 0.00 | 76 | 1011.1 |
| 20260504024003 | 54 | 288 | 2.0 | 6.0 | 0.00 | 0.00 | 0.00 | 76 | 1011.0 |
| 20260504023803 | 54 | 283 | 2.0 | 6.0 | 0.00 | 0.00 | 0.00 | 76 | 1011.0 |
| 20260504023624 | 54 | 287 | 2.0 | 6.0 | 0.00 | 0.00 | 0.00 | 75 | 1010.9 |
| 20260504023424 | 54 | 291 | 2.0 | 6.0 | 0.00 | 0.00 | 0.00 | 75 | 1010.8 |
| 20260504023203 | 54 | 294 | 3.0 | 7.0 | 0.00 | 0.00 | 0.00 | 75 | 1010.8 |
| 20260504023003 | 54 | 293 | 4.0 | 8.0 | 0.00 | 0.00 | 0.00 | 75 | 1010.7 |
| 20260504022803 | 55 | 292 | 3.0 | 8.0 | 0.00 | 0.00 | 0.00 | 75 | 1010.7 |
| 20260504022603 | 55 | 289 | 3.0 | 8.0 | 0.00 | 0.00 | 0.00 | 75 | 1010.5 |
| 20260504022403 | 55 | 289 | 3.0 | 8.0 | 0.00 | 0.00 | 0.00 | 74 | 1010.5 |
| 20260504022203 | 55 | 289 | 3.0 | 8.0 | 0.00 | 0.00 | 0.00 | 74 | 1010.5 |
| 20260504022004 | 55 | 290 | 2.0 | 6.0 | 0.00 | 0.00 | 0.00 | 75 | 1010.4 |
| 20260504021803 | 55 | 293 | 2.0 | 6.0 | 0.00 | 0.00 | 0.00 | 75 | 1010.2 |
| 20260504021603 | 56 | 295 | 3.0 | 8.0 | 0.00 | 0.00 | 0.00 | 75 | 1010.1 |
| 20260504021403 | 56 | 294 | 3.0 | 8.0 | 0.00 | 0.00 | 0.00 | 75 | 1010.2 |
| 20260504021203 | 56 | 293 | 2.0 | 8.0 | 0.00 | 0.00 | 0.00 | 74 | 1010.3 |
| 20260504021024 | 56 | 297 | 2.0 | 8.0 | 0.00 | 0.00 | 0.00 | 74 | 1010.3 |
| 20260504020803 | 56 | 296 | 2.0 | 8.0 | 0.00 | 0.00 | 0.00 | 74 | 1010.2 |
| 20260504020603 | 56 | 298 | 1.0 | 4.0 | 0.00 | 0.00 | 0.00 | 75 | 1010.2 |
| 20260504020403 | 56 | 294 | 1.0 | 4.0 | 0.00 | 0.00 | 0.00 | 75 | 1010.1 |
| 20260504020203 | 56 | 296 | 2.0 | 5.0 | 0.00 | 0.00 | 0.00 | 75 | 1010.1 |
| 20260504020003 | 56 | 296 | 2.0 | 5.0 | 0.00 | 0.00 | 0.00 | 75 | 1010.0 |
| 20260504015824 | 56 | 294 | 2.0 | 5.0 | 0.00 | 0.00 | 0.00 | 75 | 1009.8 |
| 20260504015603 | 56 | 295 | 3.0 | 6.0 | 0.00 | 0.00 | 0.00 | 75 | 1009.8 |
| 20260504015403 | 56 | 295 | 2.0 | 6.0 | 0.00 | 0.00 | 0.00 | 74 | 1009.7 |
| 20260504015203 | 56 | 293 | 3.0 | 8.0 | 0.00 | 0.00 | 0.00 | 75 | 1009.7 |
| 20260504015003 | 57 | 292 | 3.0 | 8.0 | 0.00 | 0.00 | 0.00 | 74 | 1009.8 |
| 20260504014803 | 57 | 293 | 3.0 | 8.0 | 0.00 | 0.00 | 0.00 | 74 | 1009.9 |
| 20260504014603 | 57 | 291 | 3.0 | 8.0 | 0.00 | 0.00 | 0.00 | 75 | 1009.9 |
| 20260504014403 | 57 | 294 | 3.0 | 8.0 | 0.00 | 0.00 | 0.00 | 74 | 1009.9 |